Tracking 19145 objects as of 25-Apr-2018
HD Live streaming from Space Station
objects crossing your sky now

PUCP-SAT 1

Track PUCP-SAT 1 now!
10-day predictions
PUCP-SAT 1 is classified as:


NORAD ID: 39442
Int'l Code: 2013-066AC
Perigee: 582.4 km
Apogee: 624.7 km
Inclination: 97.6 °
Period: 96.6 minutes
Semi major axis: 6974 km
RCS: Unknown
Launch date: November 21, 2013
Source: (TBD)
Launch site: Orenburg, Russia (OREN)
Uplink (MHz): 145.840
Downlink (MHz): 145.840/437.200
Beacon (MHz):
Mode: 1200bps AFSK
Call sign:
Status: Inactive

aabbcc
Your satellite tracking list
Your tracking list is empty




NASA's NSSDC Master Catalog

Two Line Element Set (TLE):
1 39442U 13066AC  18115.15121186  .00000379  00000-0  44106-4 0  9997
2 39442  97.6047 170.8071 0030278 266.3951  93.3804 14.90485239239155
Source of the keplerian elements: AFSPC